Location: Casa Rossa
(45.2389°N, 12.2056°E)
Time: 04:13:53
(UTC+00:00)

Cosmos 1782 Rocket - Pass Details

Date: 14 July 2020
Orbit: 606 x 633 km, 82.5° (Epoch: 11 August)

Event Time Altitude Azimuth Distance (km) Brightness Sun altitude
Exits shadow 02:53:00 - 195° (SSW) 2,553 6.2 -7.1°
Reaches altitude 10° 02:54:22 10° 197° (SSW) 2,002 5.7 -6.9°
Maximum altitude 02:58:47 67° 280° (W) 680 3.6 -6.3°
Drops below altitude 10° 03:03:13 10° 4° (N) 2,002 6.8 -5.7°
Sets 03:05:27 0° 7° (N) 2,909 7.8 -5.4°
